Regional Weather Roundup
Issued by NWS

Home | Current Version | Previous Version | Text Only | Print | Product List | Glossary Off
Versions: 1 2 3 4 5 6 7 8 9 10 11 12 13 14 15 16 17 18 19 20 21 22 23 24 25 26 27 28 29 30 31 32 33 34 35 36 37 38 39 40 41 42 43 44 45 46 47 48 49 50

261
ASUS44 KLIX 221201
RWRLA
LOUISIANA WEATHER ROUNDUP
NATIONAL WEATHER SERVICE NEW ORLEANS LA
600 AM CST SAT NOV 22 2014

NOTE: "FAIR" INDICATES FEW OR NO CLOUDS BELOW 12,000 FEET WITH NO
      SIGNIFICANT WEATHER AND/OR OBSTRUCTIONS TO VISIBILITY.
      SKY/WX - SKY CONDITION AND SIGNIFICANT WEATHER.
      TMP - AIR TEMPERATURE.    DP   - DEWPOINT TEMPERATURE.
      RH  - RELATIVE HUMIDITY.  PRES - PRESSURE.
      HX  - HEAT INDEX.         WCI  - WIND CHILL INDEX.

*  THESE STATIONS ARE NOT NWS OR FAA STATIONS AND ARE NOT UNDER
   NWS QUALITY CONTROL.

LAZ040-048-061>063-065-066-069-221300-
SOUTHEAST LOUISIANA

CITY           SKY/WX    TMP DP  RH WIND       PRES   REMARKS
N.O. AUDUBON   NOT AVBL
N.O. INTL ARPT PTCLDY    55  51  86 E7        30.20F
6HR MIN TEMP:  54; 6HR MAX TEMP:  57;

N.O. LAKEFRONT CLEAR     56  50  80 E13       30.21F
6HR MIN TEMP:  55; 6HR MAX TEMP:  57;

N.O. DOWNTOWN* FAIR      57  48  72 NE9       30.21S
6HR MIN TEMP:  57; 6HR MAX TEMP:  61;

SLIDELL        CLEAR     51  45  79 NE5       30.22S
6HR MIN TEMP:  46; 6HR MAX TEMP:  52;

BATON ROUGE    CLEAR     51  47  86 E8        30.20F
6HR MIN TEMP:  50; 6HR MAX TEMP:  55;

BOOTHVILLE     CLEAR     59  57  93 E5        30.20S
6HR MIN TEMP:  58; 6HR MAX TEMP:  62;

BELLE CHASSE   PTCLDY    55  51  86 NE9       30.20F
6HR MIN TEMP:  52; 6HR MAX TEMP:  57;

BOGALUSA*        N/A     43  40  89 CALM      30.26S FOG
6HR MIN TEMP:  43; 6HR MAX TEMP:  46;

NEW ROADS*     FAIR      54  48  82 E3        30.21R
6HR MIN TEMP:  51; 6HR MAX TEMP:  55;

GONZALES*      NOT AVBL
HAMMOND*       CLEAR     52  46  82 E5        30.23S
HOUMA*         PTCLDY    54  52  94 NE7       30.19R
PORT FOURCHON* CLOUDY    63  59  88 E7        30.20S

$$

LAZ041-044-053-054-221300-
SOUTHWEST LOUISIANA

CITY           SKY/WX    TMP DP  RH WIND       PRES   REMARKS
LAKE CHARLES   CLEAR     54  50  86 E7        30.15F
6HR MIN TEMP:  53; 6HR MAX TEMP:  59;

LAFAYETTE      MOCLDY    55  50  83 CALM      30.20R
6HR MIN TEMP:  55; 6HR MAX TEMP:  57;

PATTERSON      CLEAR     54  50  87 E6        30.20S
6HR MIN TEMP:  52; 6HR MAX TEMP:  55;

SALT POINT       N/A     56  52  86 VRB5      30.16S
6HR MIN TEMP:  54; 6HR MAX TEMP:  57;

NEW IBERIA     CLOUDY    57  52  83 E7        30.20R
6HR MIN TEMP:  54; 6HR MAX TEMP:  57;

CHENAULT AIRPK NOT AVBL

$$

LAZ027-028-221300-
CENTRAL LOUISIANA

CITY           SKY/WX    TMP DP  RH WIND       PRES   REMARKS
FORT POLK      NOT AVBL
ALEXANDRIA INT PTCLDY    56  50  80 SE12      30.18S
6HR MIN TEMP:  56; 6HR MAX TEMP:  61; 6HR PCP: TRACE;

ALEXANDRIA     CLEAR     55  50  83 E3        30.20F
6HR MIN TEMP:  55; 6HR MAX TEMP:  60;


$$

LAZ001-002-221300-
NORTHWEST LOUISIANA

CITY           SKY/WX    TMP DP  RH WIND       PRES   REMARKS
SHREVEPORT     CLOUDY    57  52  83 SE7       30.16S
6HR MIN TEMP:  56; 6HR MAX TEMP:  57; 6HR PCP:  0.02;

BARKSDALE AFB  NOT AVBL
DTN SHREVEPORT CLOUDY    57  50  77 SE10      30.17R
6HR MIN TEMP:  56; 6HR MAX TEMP:  57; 6HR PCP:  0.02;


$$

LAZ014-016-221300-
NORTHEAST LOUISIANA

CITY           SKY/WX    TMP DP  RH WIND       PRES   REMARKS
MONROE         LGT RAIN  56  51  84 E5        30.23F
6HR MIN TEMP:  56; 6HR MAX TEMP:  61; 6HR PCP: TRACE;

TALLULAH       MOCLDY    53  47  79 SE6       30.25S
6HR MIN TEMP:  52; 6HR MAX TEMP:  56; 6HR PCP: TRACE;


$$




USA.gov is the U.S. government's official web portal to all federal, state and local government web resources and services.